Location: Stoke Bliss
(52.2667°N, 2.5167°W)
Time: 21:18:06
(UTC+00:00)

Meteor 2-4 Rocket - Pass Details

Date: 03 March 2021
Orbit: 799 x 908 km, 81.2° (Epoch: 15 April)

Event Time Altitude Azimuth Distance (km) Brightness Sun altitude
Rises 18:43:47 0° 348° (NNW) 3,478 7.1 -8.5°
Reaches altitude 10° 18:46:17 10° 353° (N) 2,551 6.3 -8.9°
Maximum altitude 18:52:01 56° 72° (ENE) 1,057 3.9 -9.8°
Drops below altitude 10° 18:57:49 10° 150° (SSE) 2,582 5.9 -10.6°
Sets 19:00:20 0° 155° (SSE) 3,524 6.6 -11.0°
